Pasco, WA

10:12 PM PDT on September 29, 2016 (GMT -0700)
Tri-Cities

Weather History for KPSC - March, 2013

Change the Weather History Date:

Monday, March 4, 2013

  Actual Average Record
Temperature  
Mean Temperature 37 °F 43 °F  
Max Temperature 54 °F 55 °F 67 °F (2012)
Min Temperature 20 °F 30 °F 16 °F (2015)
Degree Days  
Heating Degree Days 28 22  
Month to date heating degree days 76 91  
Since 1 July heating degree days 3694 3974  
Cooling Degree Days 0 0  
Month to date cooling degree days 0 0  
Year to date cooling degree days 0 0  
Moisture  
Dew Point 22 °F    
Average Humidity 59    
Maximum Humidity 92    
Minimum Humidity 26    
Precipitation  
Precipitation 0.00 in 0.02 in 0.46 in (1983)
Month to date precipitation T 0.10  
Year to date precipitation 0.48 2.18  
Snow  
Snow 0.00 in - - ()
Snow Depth 0.00 in    
Sea Level Pressure  
Sea Level Pressure 30.22 in    
Wind  
Wind Speed 4 mph (NNE)    
Max Wind Speed 10 mph    
Max Gust Speed 16 mph    
Visibility 10 miles    
Events      
T = Trace of Precipitation, MM = Missing Value Source: NWS Daily Summary

Daily Weather History Graph

Daily Weather History Graph

Search for Another Location

Airport or City:

Trip Planner

Search our weather history database for the weather conditions in past years. The results will help you decide how hot, cold, wet, or windy it might be!

Date:

Astronomy

Mar. 04, 2013 Rise Set
Actual Time 6:29 AM PST 5:47 PM PST
Civil Twilight 5:59 AM PST 6:17 PM PST
Nautical Twilight 5:24 AM PST 6:52 PM PST
Astronomical Twilight 4:49 AM PST 7:27 PM PST
Moon 12:58 AM PST (3/4) 10:18 AM PST (3/4)
Length of Visible Light 12h 18m
Length of Day
11h 18m
Waning Gibbous, 51% of the Moon is Illuminated
Mar 4
Waning Gibbous
Mar 4
Last Quarter
Mar 11
New
Mar 19
First Quarter
Mar 27
Full

Hourly Weather History & Observations

Time (PST) Temp. Windchill Dew Point Humidity Pressure Visibility Wind Dir Wind Speed Gust Speed Precip Events Conditions
12:53 AM 28.0 °F 20.8 °F 19.9 °F 72% 30.28 in 10.0 mi East 6.9 mph - N/A   Clear
1:53 AM 26.1 °F 21.9 °F 19.9 °F 78% 30.29 in 10.0 mi East 3.5 mph - N/A   Clear
2:53 AM 23.0 °F - 19.0 °F 85% 30.30 in 10.0 mi Calm Calm - N/A   Clear
3:53 AM 21.0 °F 14.6 °F 19.0 °F 92% 30.30 in 10.0 mi NNW 4.6 mph - N/A   Clear
4:53 AM 21.9 °F 17.2 °F 19.0 °F 89% 30.31 in 10.0 mi NNW 3.5 mph - N/A   Clear
5:53 AM 21.0 °F - 19.0 °F 92% 30.31 in 10.0 mi Calm Calm - N/A   Clear
6:53 AM 21.0 °F - 18.0 °F 88% 30.33 in 10.0 mi Calm Calm - N/A   Clear
7:53 AM 28.0 °F - 23.0 °F 81% 30.33 in 10.0 mi Calm Calm - N/A   Clear
8:53 AM 35.1 °F - 26.1 °F 70% 30.32 in 10.0 mi Calm Calm - N/A   Clear
9:53 AM 39.9 °F - 23.0 °F 51% 30.32 in 10.0 mi Calm Calm - N/A   Clear
10:53 AM 44.1 °F 42.5 °F 24.1 °F 45% 30.30 in 10.0 mi East 3.5 mph - N/A   Clear
11:53 AM 46.9 °F - 25.0 °F 42% 30.28 in 10.0 mi NE 3.5 mph - N/A   Clear
12:53 PM 50.0 °F - 26.1 °F 39% 30.24 in 10.0 mi Variable 4.6 mph - N/A   Clear
1:53 PM 52.0 °F - 23.0 °F 32% 30.19 in 10.0 mi Variable 4.6 mph - N/A   Clear
2:53 PM 54.0 °F - 23.0 °F 30% 30.18 in 10.0 mi Variable 3.5 mph - N/A   Clear
3:53 PM 53.1 °F - 19.0 °F 26% 30.16 in 10.0 mi ENE 4.6 mph - N/A   Clear
4:53 PM 53.1 °F - 19.9 °F 27% 30.12 in 10.0 mi NE 5.8 mph - N/A   Clear
5:53 PM 46.0 °F 41.4 °F 21.9 °F 39% 30.10 in 10.0 mi NE 9.2 mph - N/A   Clear
6:53 PM 35.1 °F 30.1 °F 25.0 °F 67% 30.10 in 10.0 mi North 5.8 mph - N/A   Clear
7:53 PM 32.0 °F 25.6 °F 25.0 °F 75% 30.09 in 10.0 mi North 6.9 mph - N/A   Clear
8:53 PM 36.0 °F 33.3 °F 23.0 °F 59% 30.08 in 10.0 mi Variable 3.5 mph - N/A   Clear
9:53 PM 30.0 °F 25.2 °F 21.9 °F 72% 30.06 in 10.0 mi NW 4.6 mph - N/A   Clear
11:53 PM 28.0 °F 24.2 °F 21.9 °F 78% 30.05 in 10.0 mi WNW 3.5 mph - N/A   Clear